{"data":{"norad_id":67935,"intl_designator":"2026-037D","name":"STARLINK-36860","alt_names":[],"object_type":"PAYLOAD","status":"ACTIVE","operator":null,"country":"US","launch_date":"2026-02-24","launch_site_code":"AFETR","launch_vehicle":null,"mission":null,"orbit_class":"UNKNOWN","rcs_meters":null,"size_class":null,"mass_kg":null,"dimensions":null,"purposes":["comms"],"wikipedia_slug":null,"has_3d_model":false,"image_url":null,"decayed_at":null,"tle_current":{"epoch":"2026-09-19T03:25:17.272128Z","epoch_age_seconds":180494,"freshness":"STALE","line1":"1 67935U 26037D   26262.14256102  .00011682  00000+0  43327-3 0  9996","line2":"2 67935  43.0025 178.4948 0001214 262.5147  97.5567 15.27586470 32922","mean_motion":15.2758647,"eccentricity":0.0001214,"inclination_deg":43.0025,"raan_deg":178.4948,"arg_perigee_deg":262.5147,"mean_anomaly_deg":97.5567,"bstar":0.00043327,"rev_number":3292,"period_min":94.266349452545,"perigee_km":482.19677696034,"apogee_km":483.86266824059,"semimajor_km":6861.1667226005,"source":"CELESTRAK","updated_at":"2026-09-20T09:00:43.707171Z"}}}